contact:dominique.lefevre@mio.osupytheas.fr, maurice.libes@osupytheas.fr, didier.mallarino@osupytheas.fr
Project:EMSO http://www.emso-fr.org/EMSO-France
Depth: 2436.0 m
Title:EMSO Ligure Ouest : Data MII capteur MICROCAT
DateTime_Computer,Latitude,Longitude,Temperature,Conductivity,Pressure,DateTime_Instrument
DateTime_Computer,Latitude,Longitude,degC,S m-1,dbar,DateTime_Instrument
2020-05-30T00:00:24Z,42.805,6.029,13.3041,4.60003,2470.124,2020-5-30T02:01:07Z
2020-05-30T00:03:27Z,42.805,6.029,13.3016,4.60014,2470.156,2020-5-30T02:04:10Z
2020-05-30T00:06:30Z,42.805,6.029,13.3024,4.60011,2470.147,2020-5-30T02:07:13Z
2020-05-30T00:09:33Z,42.805,6.029,13.3034,4.60017,2470.124,2020-5-30T02:10:16Z
2020-05-30T00:12:36Z,42.805,6.029,13.3085,4.60022,2470.1,2020-5-30T02:13:20Z
2020-05-30T00:15:40Z,42.805,6.029,13.3026,4.60009,2470.147,2020-5-30T02:16:23Z
2020-05-30T00:18:43Z,42.805,6.029,13.3042,4.60001,2470.11,2020-5-30T02:19:26Z
2020-05-30T00:21:46Z,42.805,6.029,13.3009,4.60031,2470.147,2020-5-30T02:22:29Z
2020-05-30T00:24:49Z,42.805,6.029,13.3012,4.60011,2470.133,2020-5-30T02:25:33Z
2020-05-30T00:27:53Z,42.805,6.029,13.3016,4.60010,2470.147,2020-5-30T02:28:36Z
2020-05-30T00:30:56Z,42.805,6.029,13.3011,4.60016,2470.147,2020-5-30T02:31:39Z
2020-05-30T00:33:59Z,42.805,6.029,13.3026,4.60011,2470.147,2020-5-30T02:34:42Z
2020-05-30T00:37:02Z,42.805,6.029,13.3027,4.60014,2470.147,2020-5-30T02:37:46Z
2020-05-30T00:40:06Z,42.805,6.029,13.3037,4.60014,2470.147,2020-5-30T02:40:49Z
2020-05-30T00:43:09Z,42.805,6.029,13.3024,4.60019,2470.11,2020-5-30T02:43:52Z
2020-05-30T00:46:12Z,42.805,6.029,13.3022,4.60005,2470.133,2020-5-30T02:46:55Z
2020-05-30T00:49:15Z,42.805,6.029,13.3032,4.60019,2470.11,2020-5-30T02:49:59Z
2020-05-30T00:52:19Z,42.805,6.029,13.3024,4.60010,2470.147,2020-5-30T02:53:02Z
2020-05-30T00:55:22Z,42.805,6.029,13.3033,4.60004,2470.147,2020-5-30T02:56:05Z
2020-05-30T00:58:25Z,42.805,6.029,13.3020,4.60010,2470.147,2020-5-30T02:59:08Z
2020-05-30T01:01:28Z,42.805,6.029,13.3028,4.60019,2470.171,2020-5-30T03:02:12Z
2020-05-30T01:04:32Z,42.805,6.029,13.3024,4.60013,2470.11,2020-5-30T03:05:15Z
2020-05-30T01:07:35Z,42.805,6.029,13.3020,4.60011,2470.11,2020-5-30T03:08:18Z
2020-05-30T01:10:38Z,42.805,6.029,13.3017,4.60003,2470.124,2020-5-30T03:11:21Z
2020-05-30T01:13:41Z,42.805,6.029,13.3018,4.60000,2470.124,2020-5-30T03:14:24Z
2020-05-30T01:16:45Z,42.805,6.029,13.3014,4.60022,2470.147,2020-5-30T03:17:28Z
2020-05-30T01:19:48Z,42.805,6.029,13.3026,4.60007,2470.087,2020-5-30T03:20:31Z
2020-05-30T01:22:51Z,42.805,6.029,13.3023,4.60016,2470.1,2020-5-30T03:23:34Z
2020-05-30T01:25:54Z,42.805,6.029,13.3020,4.60014,2470.156,2020-5-30T03:26:37Z
2020-05-30T01:28:58Z,42.805,6.029,13.3019,4.60007,2470.087,2020-5-30T03:29:41Z
2020-05-30T01:32:01Z,42.805,6.029,13.3034,4.60015,2470.1,2020-5-30T03:32:44Z
2020-05-30T01:35:04Z,42.805,6.029,13.3015,4.60003,2470.133,2020-5-30T03:35:47Z
2020-05-30T01:38:07Z,42.805,6.029,13.3009,4.60013,2470.133,2020-5-30T03:38:51Z
2020-05-30T01:41:11Z,42.805,6.029,13.3000,4.60000,2470.124,2020-5-30T03:41:54Z
2020-05-30T01:44:14Z,42.805,6.029,13.3029,4.60007,2470.124,2020-5-30T03:44:57Z
2020-05-30T01:47:17Z,42.805,6.029,13.3031,4.60020,2470.133,2020-5-30T03:48:00Z
2020-05-30T01:50:20Z,42.805,6.029,13.3019,4.60003,2470.133,2020-5-30T03:51:03Z
2020-05-30T01:53:24Z,42.805,6.029,13.3006,4.60011,2470.147,2020-5-30T03:54:07Z
2020-05-30T01:56:27Z,42.805,6.029,13.3011,4.60009,2470.147,2020-5-30T03:57:10Z
2020-05-30T01:59:30Z,42.805,6.029,13.3013,4.60018,2470.133,2020-5-30T04:00:13Z
2020-05-30T02:02:33Z,42.805,6.029,13.3010,4.60003,2470.11,2020-5-30T04:03:16Z
2020-05-30T02:05:37Z,42.805,6.029,13.3000,4.60006,2470.124,2020-5-30T04:06:20Z
2020-05-30T02:08:40Z,42.805,6.029,13.3015,4.60007,2470.124,2020-5-30T04:09:23Z
2020-05-30T02:11:43Z,42.805,6.029,13.3008,4.60001,2470.11,2020-5-30T04:12:26Z
2020-05-30T02:14:46Z,42.805,6.029,13.3034,4.60002,2470.11,2020-5-30T04:15:29Z
2020-05-30T02:17:49Z,42.805,6.029,13.3004,4.60004,2470.133,2020-5-30T04:18:33Z
2020-05-30T02:20:53Z,42.805,6.029,13.3038,4.60007,2470.124,2020-5-30T04:21:36Z
2020-05-30T02:23:56Z,42.805,6.029,13.3017,4.60009,2470.124,2020-5-30T04:24:39Z
2020-05-30T02:26:59Z,42.805,6.029,13.3015,4.60012,2470.11,2020-5-30T04:27:42Z
2020-05-30T02:30:03Z,42.805,6.029,13.3021,4.60007,2470.1,2020-5-30T04:30:46Z
2020-05-30T02:33:06Z,42.805,6.029,13.3022,4.60009,2470.124,2020-5-30T04:33:49Z
2020-05-30T02:36:09Z,42.805,6.029,13.3020,4.60005,2470.124,2020-5-30T04:36:52Z
2020-05-30T02:39:12Z,42.805,6.029,13.3024,4.60004,2470.11,2020-5-30T04:39:55Z
2020-05-30T02:42:15Z,42.805,6.029,13.3023,4.60001,2470.11,2020-5-30T04:42:59Z
2020-05-30T02:45:19Z,42.805,6.029,13.3012,4.60021,2470.1,2020-5-30T04:46:02Z
2020-05-30T02:48:22Z,42.805,6.029,13.3038,4.60007,2470.124,2020-5-30T04:49:05Z
2020-05-30T02:51:25Z,42.805,6.029,13.3015,4.60017,2470.087,2020-5-30T04:52:08Z
2020-05-30T02:54:29Z,42.805,6.029,13.3015,4.60019,2470.133,2020-5-30T04:55:12Z
2020-05-30T02:57:32Z,42.805,6.029,13.3025,4.60021,2470.087,2020-5-30T04:58:15Z
2020-05-30T03:00:35Z,42.805,6.029,13.3025,4.60009,2470.087,2020-5-30T05:01:18Z
2020-05-30T03:03:38Z,42.805,6.029,13.3013,4.60009,2470.124,2020-5-30T05:04:21Z
2020-05-30T03:06:42Z,42.805,6.029,13.3014,4.60003,2470.124,2020-5-30T05:07:25Z
2020-05-30T03:09:45Z,42.805,6.029,13.3006,4.60003,2470.1,2020-5-30T05:10:28Z
2020-05-30T03:12:48Z,42.805,6.029,13.3006,4.60003,2470.1,2020-5-30T05:13:31Z
2020-05-30T03:15:51Z,42.805,6.029,13.3004,4.60011,2470.114,2020-5-30T05:16:34Z
2020-05-30T03:18:55Z,42.805,6.029,13.3022,4.60002,2470.124,2020-5-30T05:19:38Z
2020-05-30T03:21:58Z,42.805,6.029,13.3038,4.60008,2470.1,2020-5-30T05:22:41Z
2020-05-30T03:25:01Z,42.805,6.029,13.3012,4.60009,2470.124,2020-5-30T05:25:44Z
2020-05-30T03:28:04Z,42.805,6.029,13.3013,4.60006,2470.087,2020-5-30T05:28:47Z
2020-05-30T03:31:07Z,42.805,6.029,13.3012,4.60016,2470.147,2020-5-30T05:31:51Z
2020-05-30T03:34:11Z,42.805,6.029,13.3014,4.60014,2470.124,2020-5-30T05:34:54Z
2020-05-30T03:37:14Z,42.805,6.029,13.3015,4.60009,2470.087,2020-5-30T05:37:57Z
2020-05-30T03:40:17Z,42.805,6.029,13.3023,4.60026,2470.1,2020-5-30T05:41:00Z
2020-05-30T03:43:21Z,42.805,6.029,13.3031,4.60014,2470.124,2020-5-30T05:44:04Z
2020-05-30T03:46:24Z,42.805,6.029,13.3018,4.60006,2470.1,2020-5-30T05:47:07Z
2020-05-30T03:49:27Z,42.805,6.029,13.3011,4.60011,2470.1,2020-5-30T05:50:10Z
2020-05-30T03:52:30Z,42.805,6.029,13.3020,4.60031,2470.087,2020-5-30T05:53:13Z
2020-05-30T03:55:33Z,42.805,6.029,13.3019,4.60001,2470.1,2020-5-30T05:56:16Z
2020-05-30T03:58:37Z,42.805,6.029,13.3009,4.60011,2470.063,2020-5-30T05:59:20Z
2020-05-30T04:01:40Z,42.805,6.029,13.3024,4.60009,2470.063,2020-5-30T06:02:23Z
2020-05-30T04:04:43Z,42.805,6.029,13.3010,4.60011,2470.077,2020-5-30T06:05:26Z
2020-05-30T04:07:46Z,42.805,6.029,13.3020,4.60001,2470.087,2020-5-30T06:08:29Z
2020-05-30T04:10:49Z,42.805,6.029,13.3014,4.60021,2470.087,2020-5-30T06:11:33Z
2020-05-30T04:13:53Z,42.805,6.029,13.3032,4.60011,2470.11,2020-5-30T06:14:36Z
2020-05-30T04:16:56Z,42.805,6.029,13.3029,4.59999,2470.1,2020-5-30T06:17:39Z
2020-05-30T04:19:59Z,42.805,6.029,13.3013,4.60003,2470.077,2020-5-30T06:20:42Z
2020-05-30T04:23:03Z,42.805,6.029,13.3015,4.60016,2470.063,2020-5-30T06:23:46Z
2020-05-30T04:26:06Z,42.805,6.029,13.3014,4.60009,2470.063,2020-5-30T06:26:49Z
2020-05-30T04:29:09Z,42.805,6.029,13.3019,4.60006,2470.063,2020-5-30T06:29:52Z
2020-05-30T04:32:12Z,42.805,6.029,13.3018,4.60008,2470.063,2020-5-30T06:32:55Z
2020-05-30T04:35:16Z,42.805,6.029,13.3014,4.60001,2470.1,2020-5-30T06:35:59Z
2020-05-30T04:38:19Z,42.805,6.029,13.3015,4.60011,2470.063,2020-5-30T06:39:02Z
2020-05-30T04:41:22Z,42.805,6.029,13.3012,4.60028,2470.017,2020-5-30T06:42:05Z
2020-05-30T04:44:25Z,42.805,6.029,13.2993,4.60013,2470.087,2020-5-30T06:45:08Z
2020-05-30T04:47:29Z,42.805,6.029,13.3036,4.60003,2470.063,2020-5-30T06:48:12Z
2020-05-30T04:50:32Z,42.805,6.029,13.3016,4.60016,2470.053,2020-5-30T06:51:15Z
2020-05-30T04:53:35Z,42.805,6.029,13.3012,4.60003,2470.077,2020-5-30T06:54:18Z
2020-05-30T04:56:38Z,42.805,6.029,13.3009,4.60010,2470.067,2020-5-30T06:57:22Z
2020-05-30T04:59:42Z,42.805,6.029,13.3008,4.60007,2470.063,2020-5-30T07:00:25Z
2020-05-30T05:02:45Z,42.805,6.029,13.3024,4.60011,2470.077,2020-5-30T07:03:28Z
2020-05-30T05:05:48Z,42.805,6.029,13.3008,4.60014,2470.04,2020-5-30T07:06:31Z
2020-05-30T05:08:52Z,42.805,6.029,13.3026,4.60013,2470.04,2020-5-30T07:09:35Z
2020-05-30T05:11:55Z,42.805,6.029,13.3017,4.60029,2470.053,2020-5-30T07:12:38Z
2020-05-30T05:14:58Z,42.805,6.029,13.3013,4.60028,2470.053,2020-5-30T07:15:41Z
2020-05-30T05:18:01Z,42.805,6.029,13.3037,4.60018,2470.017,2020-5-30T07:18:44Z
2020-05-30T05:21:05Z,42.805,6.029,13.3021,4.60017,2470.017,2020-5-30T07:21:48Z
2020-05-30T05:24:08Z,42.805,6.029,13.3017,4.60016,2470.053,2020-5-30T07:24:51Z
2020-05-30T05:27:11Z,42.805,6.029,13.2986,4.60008,2470.053,2020-5-30T07:27:54Z
2020-05-30T05:30:14Z,42.805,6.029,13.3048,4.60027,2470.03,2020-5-30T07:30:57Z
2020-05-30T05:33:17Z,42.805,6.029,13.3023,4.60014,2470.04,2020-5-30T07:34:01Z
2020-05-30T05:36:21Z,42.805,6.029,13.3019,4.60029,2470.017,2020-5-30T07:37:04Z
2020-05-30T05:39:24Z,42.805,6.029,13.3046,4.60009,2470.053,2020-5-30T07:40:07Z
2020-05-30T05:42:27Z,42.805,6.029,13.3047,4.60023,2470.04,2020-5-30T07:43:10Z
2020-05-30T05:45:30Z,42.805,6.029,13.3037,4.60024,2470.053,2020-5-30T07:46:14Z
2020-05-30T05:48:34Z,42.805,6.029,13.3006,4.60012,2470.017,2020-5-30T07:49:17Z
2020-05-30T05:51:37Z,42.805,6.029,13.3013,4.60009,2469.993,2020-5-30T07:52:20Z
2020-05-30T05:54:40Z,42.805,6.029,13.2968,4.60031,2470.03,2020-5-30T07:55:23Z
2020-05-30T05:57:43Z,42.805,6.029,13.2998,4.60001,2470.017,2020-5-30T07:58:26Z
2020-05-30T06:00:47Z,42.805,6.029,13.2974,4.59998,2470.007,2020-5-30T08:01:30Z
2020-05-30T06:03:50Z,42.805,6.029,13.2968,4.59999,2470.007,2020-5-30T08:04:33Z
2020-05-30T06:06:53Z,42.805,6.029,13.2975,4.59988,2470.017,2020-5-30T08:07:36Z
2020-05-30T06:09:56Z,42.805,6.029,13.2971,4.59986,2469.993,2020-5-30T08:10:39Z
2020-05-30T06:12:59Z,42.805,6.029,13.2971,4.59984,2469.993,2020-5-30T08:13:42Z
2020-05-30T06:16:03Z,42.805,6.029,13.2970,4.59984,2469.993,2020-5-30T08:16:46Z
2020-05-30T06:19:06Z,42.805,6.029,13.2973,4.59984,2469.993,2020-5-30T08:19:49Z
2020-05-30T06:22:09Z,42.805,6.029,13.2972,4.59984,2470.017,2020-5-30T08:22:52Z
2020-05-30T06:25:12Z,42.805,6.029,13.2968,4.59981,2470.04,2020-5-30T08:25:55Z
2020-05-30T06:28:16Z,42.805,6.029,13.2970,4.59982,2469.993,2020-5-30T08:28:59Z
2020-05-30T06:31:19Z,42.805,6.029,13.2969,4.59978,2470.007,2020-5-30T08:32:02Z
2020-05-30T06:34:22Z,42.805,6.029,13.2966,4.59979,2470.04,2020-5-30T08:35:05Z
2020-05-30T06:37:25Z,42.805,6.029,13.2970,4.59978,2469.993,2020-5-30T08:38:08Z
2020-05-30T06:40:28Z,42.805,6.029,13.2968,4.59983,2469.97,2020-5-30T08:41:11Z
2020-05-30T06:43:32Z,42.805,6.029,13.2968,4.59979,2469.993,2020-5-30T08:44:15Z
2020-05-30T06:46:35Z,42.805,6.029,13.2968,4.59980,2470.03,2020-5-30T08:47:18Z
2020-05-30T06:49:38Z,42.805,6.029,13.2970,4.59980,2470.007,2020-5-30T08:50:21Z
2020-05-30T06:52:42Z,42.805,6.029,13.2968,4.59980,2469.97,2020-5-30T08:53:25Z
2020-05-30T06:55:45Z,42.805,6.029,13.2970,4.59979,2469.97,2020-5-30T08:56:28Z
2020-05-30T06:58:48Z,42.805,6.029,13.2970,4.59982,2469.97,2020-5-30T08:59:31Z
2020-05-30T07:01:51Z,42.805,6.029,13.2969,4.59980,2469.993,2020-5-30T09:02:34Z
2020-05-30T07:04:55Z,42.805,6.029,13.2971,4.59978,2469.984,2020-5-30T09:05:38Z
2020-05-30T07:07:58Z,42.805,6.029,13.2970,4.59977,2469.979,2020-5-30T09:08:41Z
2020-05-30T07:11:01Z,42.805,6.029,13.2970,4.59983,2469.97,2020-5-30T09:11:44Z
2020-05-30T07:14:04Z,42.805,6.029,13.2972,4.59983,2469.984,2020-5-30T09:14:48Z
2020-05-30T07:17:08Z,42.805,6.029,13.2970,4.59980,2469.97,2020-5-30T09:17:51Z
2020-05-30T07:20:11Z,42.805,6.029,13.2973,4.59979,2469.96,2020-5-30T09:20:54Z
2020-05-30T07:23:14Z,42.805,6.029,13.2971,4.59981,2469.993,2020-5-30T09:23:57Z
2020-05-30T07:26:17Z,42.805,6.029,13.2968,4.59978,2469.993,2020-5-30T09:27:00Z
2020-05-30T07:29:20Z,42.805,6.029,13.2967,4.59983,2470.007,2020-5-30T09:30:04Z
2020-05-30T07:32:24Z,42.805,6.029,13.2969,4.59980,2469.984,2020-5-30T09:33:07Z
2020-05-30T07:35:27Z,42.805,6.029,13.2969,4.59976,2469.984,2020-5-30T09:36:10Z
2020-05-30T07:38:30Z,42.805,6.029,13.2968,4.59976,2469.947,2020-5-30T09:39:13Z
2020-05-30T07:41:34Z,42.805,6.029,13.2970,4.59981,2469.97,2020-5-30T09:42:17Z
2020-05-30T07:44:37Z,42.805,6.029,13.2968,4.59976,2469.96,2020-5-30T09:45:20Z
2020-05-30T07:47:40Z,42.805,6.029,13.2970,4.59977,2469.923,2020-5-30T09:48:23Z
2020-05-30T07:50:43Z,42.805,6.029,13.2966,4.59975,2469.97,2020-5-30T09:51:26Z
2020-05-30T07:53:46Z,42.805,6.029,13.2970,4.59975,2469.947,2020-5-30T09:54:29Z
2020-05-30T07:56:50Z,42.805,6.029,13.2967,4.59976,2469.947,2020-5-30T09:57:33Z
2020-05-30T07:59:53Z,42.805,6.029,13.2971,4.59977,2469.96,2020-5-30T10:00:36Z
2020-05-30T08:02:56Z,42.805,6.029,13.2971,4.59977,2469.947,2020-5-30T10:03:39Z
2020-05-30T08:05:59Z,42.805,6.029,13.2970,4.59978,2469.993,2020-5-30T10:06:43Z
2020-05-30T08:09:03Z,42.805,6.029,13.2967,4.59978,2469.947,2020-5-30T10:09:46Z
2020-05-30T08:12:06Z,42.805,6.029,13.2971,4.59973,2469.947,2020-5-30T10:12:49Z
2020-05-30T08:15:09Z,42.805,6.029,13.2971,4.59974,2469.97,2020-5-30T10:15:52Z
2020-05-30T08:18:12Z,42.805,6.029,13.2968,4.59976,2469.947,2020-5-30T10:18:55Z
2020-05-30T08:21:16Z,42.805,6.029,13.2968,4.59976,2469.984,2020-5-30T10:21:59Z
2020-05-30T08:24:19Z,42.805,6.029,13.2969,4.59975,2469.984,2020-5-30T10:25:02Z
2020-05-30T08:27:22Z,42.805,6.029,13.2969,4.59976,2469.993,2020-5-30T10:28:05Z
2020-05-30T08:30:25Z,42.805,6.029,13.2969,4.59975,2469.96,2020-5-30T10:31:08Z
2020-05-30T08:33:29Z,42.805,6.029,13.2970,4.59976,2469.947,2020-5-30T10:34:12Z
2020-05-30T08:36:32Z,42.805,6.029,13.2966,4.59978,2469.97,2020-5-30T10:37:15Z
2020-05-30T08:39:35Z,42.805,6.029,13.2972,4.59975,2469.97,2020-5-30T10:40:18Z
2020-05-30T08:42:38Z,42.805,6.029,13.2971,4.59975,2469.97,2020-5-30T10:43:21Z
2020-05-30T08:45:41Z,42.805,6.029,13.2971,4.59973,2469.937,2020-5-30T10:46:25Z
2020-05-30T08:48:45Z,42.805,6.029,13.2971,4.59974,2469.923,2020-5-30T10:49:28Z
2020-05-30T08:51:48Z,42.805,6.029,13.2968,4.59976,2469.947,2020-5-30T10:52:31Z
2020-05-30T08:54:51Z,42.805,6.029,13.2971,4.59979,2469.97,2020-5-30T10:55:34Z
2020-05-30T08:57:54Z,42.805,6.029,13.2967,4.59975,2469.96,2020-5-30T10:58:38Z
2020-05-30T09:00:58Z,42.805,6.029,13.2971,4.59975,2469.97,2020-5-30T11:01:41Z
2020-05-30T09:04:01Z,42.805,6.029,13.2967,4.59975,2469.937,2020-5-30T11:04:44Z
2020-05-30T09:07:04Z,42.805,6.029,13.2968,4.59974,2469.96,2020-5-30T11:07:47Z
2020-05-30T09:10:07Z,42.805,6.029,13.2970,4.59973,2469.97,2020-5-30T11:10:51Z
2020-05-30T09:13:11Z,42.805,6.029,13.2968,4.59975,2469.923,2020-5-30T11:13:54Z
2020-05-30T09:16:14Z,42.805,6.029,13.2969,4.59973,2469.923,2020-5-30T11:16:57Z
2020-05-30T09:19:17Z,42.805,6.029,13.2968,4.59973,2469.97,2020-5-30T11:20:00Z
2020-05-30T09:22:20Z,42.805,6.029,13.2968,4.59973,2469.947,2020-5-30T11:23:04Z
2020-05-30T09:25:24Z,42.805,6.029,13.2969,4.59975,2469.947,2020-5-30T11:26:07Z
2020-05-30T09:28:27Z,42.805,6.029,13.2971,4.59973,2469.947,2020-5-30T11:29:10Z
2020-05-30T09:31:30Z,42.805,6.029,13.2972,4.59973,2469.993,2020-5-30T11:32:13Z
2020-05-30T09:34:33Z,42.805,6.029,13.2968,4.59974,2469.96,2020-5-30T11:35:16Z
2020-05-30T09:37:37Z,42.805,6.029,13.2968,4.59973,2469.97,2020-5-30T11:38:20Z
2020-05-30T09:40:40Z,42.805,6.029,13.2970,4.59974,2469.96,2020-5-30T11:41:23Z
2020-05-30T09:43:43Z,42.805,6.029,13.2971,4.59976,2469.937,2020-5-30T11:44:26Z
2020-05-30T09:46:47Z,42.805,6.029,13.2964,4.59973,2469.97,2020-5-30T11:47:30Z
2020-05-30T09:49:50Z,42.805,6.029,13.2970,4.59974,2469.97,2020-5-30T11:50:33Z
2020-05-30T09:52:53Z,42.805,6.029,13.2968,4.59976,2469.947,2020-5-30T11:53:36Z
2020-05-30T09:55:56Z,42.805,6.029,13.2970,4.59975,2469.993,2020-5-30T11:56:39Z
2020-05-30T09:58:59Z,42.805,6.029,13.2970,4.59973,2469.984,2020-5-30T11:59:43Z
2020-05-30T10:02:03Z,42.805,6.029,13.2970,4.59975,2469.97,2020-5-30T12:02:46Z
2020-05-30T10:05:06Z,42.805,6.029,13.2968,4.59975,2469.97,2020-5-30T12:05:49Z
2020-05-30T10:08:09Z,42.805,6.029,13.2971,4.59974,2469.97,2020-5-30T12:08:52Z
2020-05-30T10:11:12Z,42.805,6.029,13.2971,4.59973,2469.97,2020-5-30T12:11:56Z
2020-05-30T10:14:16Z,42.805,6.029,13.2974,4.59974,2469.984,2020-5-30T12:14:59Z
2020-05-30T10:17:19Z,42.805,6.029,13.2973,4.59975,2469.96,2020-5-30T12:18:02Z
2020-05-30T10:20:22Z,42.805,6.029,13.2969,4.59981,2469.993,2020-5-30T12:21:05Z
2020-05-30T10:23:25Z,42.805,6.029,13.2968,4.59976,2469.984,2020-5-30T12:24:08Z
2020-05-30T10:26:29Z,42.805,6.029,13.2969,4.59974,2470.007,2020-5-30T12:27:12Z
2020-05-30T10:29:32Z,42.805,6.029,13.2968,4.59974,2469.984,2020-5-30T12:30:15Z
2020-05-30T10:32:35Z,42.805,6.029,13.2969,4.59973,2469.993,2020-5-30T12:33:19Z
2020-05-30T10:35:39Z,42.805,6.029,13.2967,4.59973,2470.007,2020-5-30T12:36:22Z
2020-05-30T10:38:42Z,42.805,6.029,13.2970,4.59973,2470.007,2020-5-30T12:39:25Z
2020-05-30T10:41:45Z,42.805,6.029,13.2971,4.59973,2470.017,2020-5-30T12:42:28Z
2020-05-30T10:44:49Z,42.805,6.029,13.2970,4.59976,2469.993,2020-5-30T12:45:32Z
2020-05-30T10:47:52Z,42.805,6.029,13.2968,4.59973,2469.97,2020-5-30T12:48:35Z
2020-05-30T10:50:55Z,42.805,6.029,13.2967,4.59973,2470.017,2020-5-30T12:51:38Z
2020-05-30T10:53:58Z,42.805,6.029,13.2966,4.59974,2470.017,2020-5-30T12:54:41Z
2020-05-30T10:57:01Z,42.805,6.029,13.2968,4.59973,2470.017,2020-5-30T12:57:45Z
2020-05-30T11:00:05Z,42.805,6.029,13.2968,4.59975,2469.97,2020-5-30T13:00:48Z
2020-05-30T11:03:08Z,42.805,6.029,13.2974,4.59975,2470.017,2020-5-30T13:03:51Z
2020-05-30T11:06:11Z,42.805,6.029,13.2970,4.59977,2470.007,2020-5-30T13:06:54Z
2020-05-30T11:09:14Z,42.805,6.029,13.2972,4.59975,2470.03,2020-5-30T13:09:58Z
2020-05-30T11:12:18Z,42.805,6.029,13.2969,4.59973,2469.97,2020-5-30T13:13:01Z
2020-05-30T11:15:21Z,42.805,6.029,13.2969,4.59975,2469.993,2020-5-30T13:16:04Z
2020-05-30T11:18:24Z,42.805,6.029,13.2975,4.59974,2470.007,2020-5-30T13:19:07Z
2020-05-30T11:21:28Z,42.805,6.029,13.2968,4.59973,2470.017,2020-5-30T13:22:11Z
2020-05-30T11:24:31Z,42.805,6.029,13.2966,4.59976,2470.007,2020-5-30T13:25:14Z
2020-05-30T11:27:34Z,42.805,6.029,13.2969,4.59976,2469.993,2020-5-30T13:28:17Z
2020-05-30T11:30:37Z,42.805,6.029,13.2973,4.59975,2469.993,2020-5-30T13:31:21Z
2020-05-30T11:33:41Z,42.805,6.029,13.2972,4.59973,2470.017,2020-5-30T13:34:24Z
2020-05-30T11:36:44Z,42.805,6.029,13.2968,4.59974,2470.007,2020-5-30T13:37:27Z
2020-05-30T11:39:47Z,42.805,6.029,13.2971,4.59974,2470.017,2020-5-30T13:40:30Z
2020-05-30T11:42:50Z,42.805,6.029,13.2971,4.59973,2470.007,2020-5-30T13:43:33Z
2020-05-30T11:45:54Z,42.805,6.029,13.2968,4.59973,2470.017,2020-5-30T13:46:37Z
2020-05-30T11:48:57Z,42.805,6.029,13.2968,4.59974,2470.017,2020-5-30T13:49:40Z
2020-05-30T11:52:00Z,42.805,6.029,13.2971,4.59974,2469.993,2020-5-30T13:52:43Z
2020-05-30T11:55:03Z,42.805,6.029,13.2971,4.59974,2470.03,2020-5-30T13:55:46Z
2020-05-30T11:58:07Z,42.805,6.029,13.2967,4.59976,2470.03,2020-5-30T13:58:50Z
2020-05-30T12:01:10Z,42.805,6.029,13.2971,4.59973,2470.007,2020-5-30T14:01:53Z
2020-05-30T12:04:13Z,42.805,6.029,13.2968,4.59973,2469.993,2020-5-30T14:04:56Z
2020-05-30T12:07:16Z,42.805,6.029,13.2967,4.59975,2470.017,2020-5-30T14:07:59Z
2020-05-30T12:10:19Z,42.805,6.029,13.2968,4.59973,2469.984,2020-5-30T14:11:03Z
2020-05-30T12:13:23Z,42.805,6.029,13.2968,4.59975,2470.03,2020-5-30T14:14:06Z
2020-05-30T12:16:26Z,42.805,6.029,13.2971,4.59973,2470.017,2020-5-30T14:17:09Z
2020-05-30T12:19:29Z,42.805,6.029,13.2968,4.59973,2469.993,2020-5-30T14:20:12Z
2020-05-30T12:22:32Z,42.805,6.029,13.2967,4.59973,2469.993,2020-5-30T14:23:15Z
2020-05-30T12:25:35Z,42.805,6.029,13.2971,4.59973,2469.993,2020-5-30T14:26:19Z
2020-05-30T12:28:39Z,42.805,6.029,13.2972,4.59974,2470.017,2020-5-30T14:29:22Z
2020-05-30T12:31:42Z,42.805,6.029,13.2967,4.59974,2470.017,2020-5-30T14:32:25Z
2020-05-30T12:34:45Z,42.805,6.029,13.2968,4.59978,2469.993,2020-5-30T14:35:28Z
2020-05-30T12:37:49Z,42.805,6.029,13.2970,4.59973,2470.04,2020-5-30T14:38:32Z
2020-05-30T12:40:52Z,42.805,6.029,13.2973,4.59974,2470.007,2020-5-30T14:41:35Z
2020-05-30T12:43:55Z,42.805,6.029,13.2968,4.59973,2469.993,2020-5-30T14:44:38Z
2020-05-30T12:46:58Z,42.805,6.029,13.2971,4.59973,2469.993,2020-5-30T14:47:41Z
2020-05-30T12:50:01Z,42.805,6.029,13.2970,4.59973,2469.993,2020-5-30T14:50:45Z
2020-05-30T12:53:05Z,42.805,6.029,13.2970,4.59975,2470.017,2020-5-30T14:53:48Z
2020-05-30T12:56:08Z,42.805,6.029,13.2970,4.59973,2469.993,2020-5-30T14:56:51Z
2020-05-30T12:59:11Z,42.805,6.029,13.2967,4.59973,2469.993,2020-5-30T14:59:54Z
2020-05-30T13:02:14Z,42.805,6.029,13.2967,4.59975,2470.04,2020-5-30T15:02:58Z
2020-05-30T13:05:18Z,42.805,6.029,13.2970,4.59974,2469.993,2020-5-30T15:06:01Z
2020-05-30T13:08:21Z,42.805,6.029,13.2968,4.59973,2469.993,2020-5-30T15:09:04Z
2020-05-30T13:11:24Z,42.805,6.029,13.2970,4.59973,2470.007,2020-5-30T15:12:07Z
2020-05-30T13:14:27Z,42.805,6.029,13.2971,4.59976,2470.03,2020-5-30T15:15:10Z
2020-05-30T13:17:31Z,42.805,6.029,13.2968,4.59978,2470.003,2020-5-30T15:18:14Z
2020-05-30T13:20:34Z,42.805,6.029,13.2968,4.59974,2469.97,2020-5-30T15:21:17Z
2020-05-30T13:23:37Z,42.805,6.029,13.2968,4.59972,2470.007,2020-5-30T15:24:20Z
2020-05-30T13:26:40Z,42.805,6.029,13.2968,4.59974,2470.017,2020-5-30T15:27:24Z
2020-05-30T13:29:44Z,42.805,6.029,13.2970,4.59975,2469.993,2020-5-30T15:30:27Z
2020-05-30T13:32:47Z,42.805,6.029,13.2973,4.59976,2469.993,2020-5-30T15:33:30Z
2020-05-30T13:35:50Z,42.805,6.029,13.2973,4.59976,2470.03,2020-5-30T15:36:33Z
2020-05-30T13:38:53Z,42.805,6.029,13.2969,4.59976,2470.03,2020-5-30T15:39:37Z
2020-05-30T13:41:57Z,42.805,6.029,13.2971,4.59975,2470.017,2020-5-30T15:42:40Z
2020-05-30T13:45:00Z,42.805,6.029,13.2969,4.59974,2470.03,2020-5-30T15:45:43Z
2020-05-30T13:48:03Z,42.805,6.029,13.2970,4.59978,2470.017,2020-5-30T15:48:46Z
2020-05-30T13:51:06Z,42.805,6.029,13.2970,4.59981,2470.007,2020-5-30T15:51:50Z
2020-05-30T13:54:10Z,42.805,6.029,13.2974,4.59976,2469.993,2020-5-30T15:54:53Z
2020-05-30T13:57:13Z,42.805,6.029,13.2968,4.59974,2470.03,2020-5-30T15:57:56Z
2020-05-30T14:00:16Z,42.805,6.029,13.2971,4.59973,2470.03,2020-5-30T16:00:59Z
2020-05-30T14:03:19Z,42.805,6.029,13.2969,4.59973,2470.017,2020-5-30T16:04:02Z
2020-05-30T14:06:23Z,42.805,6.029,13.2968,4.59978,2470.017,2020-5-30T16:07:06Z
2020-05-30T14:09:26Z,42.805,6.029,13.2969,4.59974,2469.993,2020-5-30T16:10:09Z
2020-05-30T14:12:29Z,42.805,6.029,13.2968,4.59975,2470.007,2020-5-30T16:13:12Z
2020-05-30T14:15:32Z,42.805,6.029,13.2971,4.59974,2470.053,2020-5-30T16:16:15Z
2020-05-30T14:18:36Z,42.805,6.029,13.2968,4.59973,2470.04,2020-5-30T16:19:19Z
2020-05-30T14:21:39Z,42.805,6.029,13.2969,4.59973,2470.017,2020-5-30T16:22:22Z
2020-05-30T14:24:42Z,42.805,6.029,13.2968,4.59974,2470.017,2020-5-30T16:25:25Z
2020-05-30T14:27:45Z,42.805,6.029,13.2971,4.59978,2469.993,2020-5-30T16:28:28Z
2020-05-30T14:30:49Z,42.805,6.029,13.2971,4.59975,2470.003,2020-5-30T16:31:32Z
2020-05-30T14:33:52Z,42.805,6.029,13.2968,4.59976,2469.97,2020-5-30T16:34:35Z
2020-05-30T14:36:55Z,42.805,6.029,13.2969,4.59976,2469.993,2020-5-30T16:37:38Z
2020-05-30T14:39:58Z,42.805,6.029,13.2969,4.59974,2470.03,2020-5-30T16:40:42Z
2020-05-30T14:43:02Z,42.805,6.029,13.2973,4.59973,2469.993,2020-5-30T16:43:45Z
2020-05-30T14:46:05Z,42.805,6.029,13.2970,4.59974,2469.97,2020-5-30T16:46:48Z
2020-05-30T14:49:08Z,42.805,6.029,13.2969,4.59974,2469.993,2020-5-30T16:49:51Z
2020-05-30T14:52:11Z,42.805,6.029,13.2970,4.59973,2470.017,2020-5-30T16:52:55Z
2020-05-30T14:55:15Z,42.805,6.029,13.2967,4.59975,2469.993,2020-5-30T16:55:58Z
2020-05-30T14:58:18Z,42.805,6.029,13.2971,4.59972,2469.993,2020-5-30T16:59:01Z
2020-05-30T15:01:21Z,42.805,6.029,13.2966,4.59973,2469.97,2020-5-30T17:02:04Z
2020-05-30T15:04:25Z,42.805,6.029,13.2968,4.59973,2469.97,2020-5-30T17:05:08Z
2020-05-30T15:07:28Z,42.805,6.029,13.2968,4.59973,2470.03,2020-5-30T17:08:11Z
2020-05-30T15:10:31Z,42.805,6.029,13.2967,4.59974,2470.017,2020-5-30T17:11:14Z
2020-05-30T15:13:34Z,42.805,6.029,13.2971,4.59973,2469.993,2020-5-30T17:14:17Z